Retour au catalogue

TIANQI 25

ActifCommunicationsLEO
NORAD 59909·PAYLOAD·🇨🇳 China

Lancé May 29, 2024 depuis Yellow Sea Launch Area

Loading…

Prochains Passages (prochaines 24 heures)

TLE

FraisSource: Space-Track

Époque: Sep 14, 2026, 22:09 UTC

1 59909U 24102A   26257.92311002 -.00000024  00000-0  71789-4 0  9994
2 59909  44.9760 222.6321 0012869 303.0214  56.9382 13.99192535117471

Suivez TIANQI 25 en temps réel avec AllMySat

Download on the App Store